Location: Upton
(50.5333°N, 4.4333°W)
Time: 23:57:28
(UTC+00:00)

Daily predictions for brighter satellites

Satellite Brightness Start Highest point End
(mag) Time Altitude Azimuth Time Altitude Azimuth Time Altitude Azimuth
NOSS 2-3 (C) 4.4 18:49:18 10° WSW 18:53:38 59° NW 18:58:57 10° NE
Cosmos 2112 Rocket 4.3 18:49:48 10° NNW 18:55:01 76° WSW 19:00:14 10° SSE
Cosmos 1725 Rocket 4.2 18:49:08 10° SSW 18:55:26 81° W 19:01:43 10° N
Cosmos 1680 Rocket 4.1 18:53:40 10° NNW 18:58:50 62° WSW 19:03:59 10° S
Cosmos 2082 Rocket 4.4 18:57:55 10° N 18:59:14 11° NNE 19:00:33 10° NNE
OPS 6432 4.3 18:57:12 10° NW 19:00:14 76° NE 19:03:56 10° SE
NOSS 3-1 (A) 4.0 18:55:10 10° WSW 19:00:45 63° NW 19:07:26 10° NE
Cosmos 1544 3.1 18:57:36 10° S 19:01:15 89° W 19:04:57 10° N
Cosmos 1937 Rocket 3.8 18:56:17 10° S 19:01:17 46° ESE 19:06:16 10° NE
OBJECT-B 3.0 19:01:51 10° E 19:03:09 12° ENE 19:04:27 10° NE
MOS 1 Rocket 3.7 18:59:15 10° NNE 19:03:27 37° E 19:07:28 10° SSE
Cosmos 1842 3.2 19:02:06 10° N 19:05:59 89° W 19:09:51 10° S
FREGAT/IRIS 4.1 19:05:32 11° ESE 19:07:05 15° ENE 19:08:45 10° NNE
Cosmos 2297 Rocket 4.3 19:03:34 10° WSW 19:08:24 28° NW 19:13:16 10° NNE
Cosmos 1975 Rocket 3.0 19:06:36 10° N 19:10:58 75° E 19:15:16 10° SSE
NOSS 8 (H) 4.5 19:09:49 10° SSW 19:12:50 43° SE 19:15:44 10° NE
NOSS 8 (E) 4.0 19:09:42 10° SW 19:12:53 75° SE 19:15:55 10° NE
COSMO-SKYMED 1 3.9 19:09:34 10° N 19:13:44 45° WNW 19:17:53 10° SW
Cosmos 2084 Rocket 4.3 19:09:57 10° NW 19:14:16 53° SW 19:18:40 10° SSE
In-Cosmos 22 4.5 19:09:43 10° N 19:14:46 42° ENE 19:19:49 10° SE
NOSS 2-2 (E) 3.9 19:13:36 10° S 19:16:44 31° ESE 19:20:14 10° ENE
Cosmos 1707 2.9 19:16:42 10° N 19:20:28 51° ENE 19:24:12 10° SSE
Resurs 01 Rocket 3.3 19:19:16 12° E 19:21:39 18° ENE 19:24:38 10° NNE
H-2A R/B 2.0 19:16:46 10° SSE 19:21:44 87° WSW 19:26:51 10° NNW
ARGOS 3.1 19:17:37 10° SSE 19:22:57 76° ENE 19:28:21 10° NNW
CZ-2C R/B 3.3 19:18:55 10° NNE 19:23:53 33° E 19:28:54 10° SSE
DMSP B5D1-3 4.5 19:19:19 10° NNE 19:24:27 85° ESE 19:29:33 10° SSW
NOSS 2-2 (D) 3.9 19:22:06 10° S 19:25:12 29° ESE 19:28:35 10° ENE
SJ-6B 3.3 19:21:48 10° SE 19:25:15 36° ENE 19:28:44 10° N
Sich 1 Rocket 3.6 19:23:12 10° S 19:27:37 59° E 19:32:06 10° NNE
Iridium 4 Rocket 4.0 19:23:36 10° SSW 19:28:30 65° W 19:33:56 10° N
Cosmos 1048 Rocket 4.5 19:24:45 10° NNW 19:29:50 45° ENE 19:34:10 14° SE
MOS 1 4.5 19:24:23 10° SE 19:29:54 53° ENE 19:35:27 10° N
ATLAS CENTAUR R/B 3.7 19:28:13 10° WNW 19:31:05 19° NNW 19:33:53 10° NNE
CENTAUR R/B 3.5 19:23:55 10° NW 19:31:28 54° NE 19:38:33 16° ESE
ATLAS 3B R/B 3.8 19:31:16 10° NW 19:37:15 32° NNE 19:42:49 12° E
Cosmos 2263 Rocket 2.3 19:33:22 10° SSW 19:38:57 84° WNW 19:44:36 10° NNE
ARIANE 5 R/B 4.4 19:37:43 14° ENE 19:39:00 16° ENE 19:41:36 10° NNE
SL-08 RB Rocket 3.6 19:34:43 10° SSE 19:39:19 77° ENE 19:43:54 10° N
USA 238 DEB 3.9 19:32:29 10° NW 19:39:37 69° NE 19:45:38 17° ESE
USA 238 3.9 19:32:36 10° NW 19:39:44 69° NE 19:45:43 17° ESE
ISS -2.4 19:38:05 10° SSW 19:40:46 22° SE 19:41:14 21° SE
Abrixas rocket 2.1 19:38:39 10° WSW 19:41:25 49° S 19:42:32 29° ESE
SJ 16-02 3.2 19:38:50 10° SW 19:42:50 34° WNW 19:46:51 10° N
Cosmos 1513 Rocket 4.5 19:37:07 10° S 19:43:19 66° E 19:49:27 10° NNE
CZ-2C R/B 4.2 19:40:18 10° S 19:45:20 47° W 19:50:41 10° NNW
Cosmos 1844 Rocket 3.4 19:41:42 10° SSE 19:46:25 29° ESE 19:51:11 10° NE
Okean 2 Rocket 3.1 19:43:18 10° S 19:47:44 61° E 19:52:11 10° NNE
Lacrosse 5 rocket 2.5 19:46:43 10° W 19:50:51 44° NNW 19:55:11 10° ENE
Cosmos 1464 Rocket 3.9 19:45:22 10° S 19:51:27 73° E 19:57:36 10° NNE
Cosmos 1943 4.5 19:46:47 10° NW 19:52:01 40° WSW 19:57:15 10° S
Okean 1 Rocket 4.1 19:51:22 24° ESE 19:52:17 25° E 19:55:58 10° NNE
IRS-1A Rocket 4.4 19:48:27 10° SSE 19:54:21 87° ENE 20:00:16 10° NNW
Ariane Rocket 3.0 19:50:57 10° SSE 19:56:01 90° SW 20:01:09 10° NNW
Cosmos 1092 Rocket 4.3 19:50:15 10° N 19:56:10 46° ENE 20:00:15 20° SE
Meteor 1-12 Rocket 4.2 19:53:07 10° S 19:59:00 77° E 20:04:51 10° NNE
Resurs 1-3 3.8 19:57:58 24° SE 20:00:18 50° ENE 20:04:34 10° N
Cosmos 1300 Rocket 3.4 19:56:20 10° S 20:00:43 79° E 20:05:10 10° NNE
Cosmos 494 Rocket 4.2 19:57:45 10° NNW 20:02:55 53° ENE 20:05:36 27° SE
Cosmos 2026 Rocket 4.5 19:57:38 10° N 20:03:38 42° ENE 20:06:56 24° SE
Cosmos 2298 Rocket 4.1 19:59:55 10° S 20:05:05 54° ESE 20:10:17 10° NNE
CZ-2C R/B 4.4 20:01:17 10° NNE 20:05:13 30° E 20:05:31 30° ESE
Cosmos 1833 Rocket 4.1 20:00:48 10° NNW 20:05:24 25° NE 20:07:47 19° ENE
SPOT 3 Rocket 3.6 20:03:38 23° SE 20:06:41 56° ENE 20:11:44 10° N
NOSS 3-2 (A) 4.0 20:00:33 10° NW 20:07:57 88° SW 20:13:56 21° SE
MetOp-A 4.1 20:03:47 11° SSE 20:08:59 90° WSW 20:14:23 10° NNW
NOSS 2-2 (C) 3.0 20:06:04 10° SW 20:09:35 76° SE 20:13:37 10° NE
Cosmos 1536 Rocket 3.6 20:10:34 10° NNW 20:15:01 81° W 20:18:27 17° S
Cosmos 1626 3.1 20:14:51 10° N 20:17:51 31° ENE 20:17:51 31° ENE
Terra 3.9 20:19:13 13° NE 20:19:27 13° NE 20:21:37 10° NNE
CREW DRAGON DEMO-1 DEB 2.7 20:16:42 10° WNW 20:19:44 76° N 20:19:51 74° NE
USA 186 3.6 20:20:19 10° SSW 20:23:05 30° W 20:26:00 10° NNW
DMSP B5D2-2 4.0 20:21:04 10° NNE 20:26:23 86° ESE 20:31:41 10° SSW
USA 234 3.4 20:20:48 10° ENE 20:27:07 48° SE 20:33:24 10° SSW
Meteor 2-5 Rocket 3.7 20:22:30 10° N 20:28:06 66° ENE 20:30:35 34° SE
Cosmos 1025 Rocket 4.1 20:24:29 10° NNW 20:28:41 45° W 20:32:51 10° SSW
Cosmos 2151 Rocket 3.7 20:24:31 10° SSW 20:28:58 75° W 20:33:29 10° N
Cosmos 372 Rocket 4.3 20:27:04 10° SSW 20:32:18 69° WNW 20:37:32 10° NNE
OBJECT-B 1.3 20:34:34 50° SW 20:35:04 57° W 20:38:18 10° NNW
Cosmos 2150 Rocket 4.0 20:29:48 10° SSW 20:35:11 85° ESE 20:40:41 10° NNE
Cosmos 1805 3.2 20:35:56 64° ENE 20:35:56 64° ENE 20:39:38 10° NNE
SPOT 5 4.2 20:40:10 26° ENE 20:40:23 26° ENE 20:44:43 10° N
NOSS 3-2 (C) 4.0 20:34:42 10° NW 20:42:06 85° SW 20:46:12 34° SE
Nadezhda 4 Rocket 4.5 20:37:09 10° NNW 20:43:08 57° W 20:49:06 10° S
Cosmos 1674 3.2 20:39:40 10° NNW 20:43:28 57° W 20:44:32 40° SSW
Meteor 1-22 Rocket 4.5 20:43:04 44° SE 20:44:19 51° E 20:50:08 10° NNE
BREEZE-M DEB (TANK) 4.4 20:40:57 10° W 20:44:29 33° SSW 20:47:13 26° SSE
Cosmos 2082 Rocket 3.4 20:40:38 10° NNW 20:45:25 27° NE 20:46:33 26° ENE
Cosmos 1125 Rocket 3.4 20:40:39 10° SSW 20:45:56 73° ESE 20:51:16 10° NNE
Okean 1-7 Rocket 4.5 20:42:58 10° N 20:46:41 36° NE 20:46:41 36° NE
Cosmos 2034 Rocket 4.4 20:42:12 10° SSW 20:48:32 65° WNW 20:54:51 10° N
Cosmos 1733 4.2 20:52:18 37° NNE 20:52:18 37° NNE 20:54:45 10° NNE
SL-14 R/B 3.6 20:48:21 10° N 20:51:36 55° NNE 20:51:36 55° NNE
COSMOS 2406 3.4 20:47:48 10° NNW 20:53:25 55° NE 20:54:20 49° E
Meteor 1-24 Rocket 3.5 20:49:29 10° N 20:55:00 81° E 20:56:22 53° SSE
ERS-1 Rocket 3.8 20:57:24 36° ENE 20:57:24 36° ENE 21:01:44 10° N
CRYOSAT 2 4.3 20:52:17 10° N 20:57:03 62° E 20:57:03 62° E
Resurs 01 Rocket 1.8 20:56:51 56° SSW 20:57:40 71° WSW 21:02:08 10° NNW
Lacrosse 4 Rocket 3.1 20:59:23 10° NNW 21:02:11 23° NNE 21:02:11 23° NNE
Cosmos 2098 Rocket 4.4 20:55:55 10° N 21:02:57 48° ENE 21:03:50 46° E
CZ-2C R/B 3.7 20:59:05 10° N 21:04:19 46° WNW 21:09:37 10° SW
Landsat 7 3.7 21:04:41 72° ENE 21:04:41 72° ENE 21:09:25 10° N
Cosmos 2266 Rocket 4.5 20:59:56 10° N 21:05:35 39° ENE 21:05:35 39° ENE
Exosat Rocket 3.4 21:00:59 10° SSW 21:06:30 88° WNW 21:11:31 10° NNE
Cosmos 1766 3.9 21:08:59 54° NNW 21:08:59 54° NNW 21:12:15 10° N
ATLAS 2AS CENTAUR R/B 3.2 21:04:11 10° S 21:11:59 48° ESE 21:19:10 10° NE
Cosmos 1655 Rocket 4.1 21:05:57 10° N 21:12:06 55° ENE 21:12:30 54° E
IGS 5A 3.9 21:13:35 58° N 21:13:35 58° N 21:16:58 10° NNW
SPOT 1/Viking Rocket 3.4 21:14:24 72° ENE 21:14:24 72° ENE 21:19:35 10° NNW
ARIANE 5 R/B 2.7 21:15:16 71° NW 21:15:16 71° NW 21:19:17 10° NNW
ISS -0.9 21:13:52 10° WSW 21:14:14 13° WSW 21:14:14 13° WSW
Cosmos 1844 3.7 21:12:29 10° SSW 21:18:12 79° WNW 21:23:52 10° NNE
Cosmos 2278 Rocket 4.3 21:22:33 14° NE 21:22:33 14° NE 21:23:19 10° NE
Cosmos 1269 Rocket 4.1 21:16:12 10° NNW 21:21:29 68° WSW 21:21:56 64° SW
Cosmos 1634 Rocket 4.0 21:19:01 33° SSW 21:21:59 76° W 21:28:14 10° N
CENTAUR R/B 3.4 21:14:42 10° NW 21:22:35 62° SW 21:25:44 41° S
MetOp-B 4.3 21:22:32 58° SSW 21:23:21 66° WSW 21:28:42 10° NNW
Cosmos 2285 Rocket 4.1 21:21:07 10° SSW 21:27:24 72° WNW 21:33:47 10° NNE
Spot 2 Rocket 3.5 21:28:19 78° W 21:28:19 78° W 21:33:15 10° NNW
ATLAS 3B R/B 2.6 21:22:10 10° NW 21:29:00 74° NE 21:30:03 63° E
Okean 1 Rocket 4.3 21:28:30 30° WSW 21:29:59 40° WNW 21:34:15 10° N
Cosmos 1844 Rocket 3.3 21:24:34 10° SW 21:30:02 55° NW 21:35:33 10° NNE
Lacrosse 5 rocket 2.7 21:26:40 10° WNW 21:30:47 36° N 21:30:50 36° N
Cosmos 909 Rocket 4.0 21:40:03 10° NW 21:46:44 69° NE 21:46:53 68° NE
Meteor 2-19 Rocket 4.5 21:43:19 10° NNW 21:49:26 72° W 21:49:44 70° WSW
Cosmos 1833 Rocket 2.8 21:44:21 10° NNW 21:49:28 72° NW 21:49:28 72° NW
Cosmos 2180 Rocket 4.4 21:50:40 86° NNE 21:50:40 86° NNE 21:56:55 10° N
Cosmos 2251 Rocket 4.1 21:49:00 10° NNW 21:53:17 55° N 21:53:17 55° N
Terra 3.0 21:58:07 39° N 21:58:07 39° N 22:01:09 10° N
Cosmos 2279 Rocket 4.4 22:05:24 54° WSW 22:06:18 59° WNW 22:12:30 10° N
USA 234 3.3 22:06:56 30° NE 22:10:23 75° NNW 22:16:56 10° WSW
SPOT 5 4.0 22:19:24 45° NW 22:19:24 45° NW 22:23:19 10° NNW
Cosmos 2082 Rocket 3.1 22:24:25 10° NNW 22:28:23 46° NW 22:28:23 46° NW
NOSS 3-4 (A) 4.4 22:41:29 41° NNE 22:41:29 41° NNE 22:45:49 10° NE
NOSS 3-4 (C) 4.4 22:41:39 41° NNE 22:41:39 41° NNE 22:45:55 10° NE
Lacrosse 4 Rocket 4.2 22:37:40 10° NW 22:38:29 15° NW 22:38:29 15° NW
Cosmos 2278 Rocket 3.6 23:04:22 34° N 23:04:22 34° N 23:07:46 10° NNE
ATLAS 2AS CENTAUR R/B 3.3 22:59:08 35° WSW 23:02:41 62° NW 23:10:25 10° NE
Lacrosse 5 rocket 4.5 23:06:02 10° WNW 23:06:27 12° NW 23:06:27 12° NW
ATLAS 3B R/B 4.1 23:13:18 10° NW 23:17:17 28° W 23:17:17 28° W
USA 234 4.1 23:46:46 10° ENE 23:54:28 44° NW 23:59:20 10° WNW
